contact:dominique.lefevre@mio.osupytheas.fr, maurice.libes@osupytheas.fr, didier.mallarino@osupytheas.fr
Project:EMSO http://www.emso-fr.org/EMSO-France
Depth: 2436.0 m
Title:EMSO Ligure Ouest : Data MII capteur CSTAR
DateTime,Latitude,Longitude,Instrument_Serial,Reference_Counts,Signal_Counts,Corrected_Signal_raw_counts,Calculated_Beam_c_inverse_meters,Internal_thermistor_counts
DateTime,Latitude,Longitude,Instrument_Serial,Reference_Counts,Signal_Counts,Corrected_Signal_raw_counts,Calculated_Beam_c_inverse_meters,Internal_thermistor_counts
2023-04-03T00:01:08,42.805,6.029,CST-1368DR,4334,4683,11474,01.233,552
2023-04-03T00:04:10,42.805,6.029,CST-1368DR,4334,4690,11493,01.226,551
2023-04-03T00:07:12,42.805,6.029,CST-1368DR,4334,4682,11474,01.233,551
2023-04-03T00:10:13,42.805,6.029,CST-1368DR,4334,4684,11478,01.231,551
2023-04-03T00:13:15,42.805,6.029,CST-1368DR,4334,4687,11485,01.229,551
2023-04-03T00:16:16,42.805,6.029,CST-1368DR,4334,4684,11478,01.231,551
2023-04-03T00:19:18,42.805,6.029,CST-1368DR,4334,4687,11485,01.229,551
2023-04-03T00:22:20,42.805,6.029,CST-1368DR,4334,4688,11488,01.228,551
2023-04-03T00:25:21,42.805,6.029,CST-1368DR,4334,4692,11496,01.225,551
2023-04-03T00:28:23,42.805,6.029,CST-1368DR,4334,4687,11484,01.229,551
2023-04-03T00:31:24,42.805,6.029,CST-1368DR,4334,4675,11456,01.239,551
2023-04-03T00:34:26,42.805,6.029,CST-1368DR,4334,4686,11482,01.230,551
2023-04-03T00:37:27,42.805,6.029,CST-1368DR,4334,4686,11483,01.230,551
2023-04-03T00:40:29,42.805,6.029,CST-1368DR,4334,4690,11493,01.226,551
2023-04-03T00:43:31,42.805,6.029,CST-1368DR,4334,4689,11489,01.228,551
2023-04-03T00:46:32,42.805,6.029,CST-1368DR,4334,4684,11478,01.231,551
2023-04-03T00:49:34,42.805,6.029,CST-1368DR,4334,4687,11485,01.229,551
2023-04-03T00:52:35,42.805,6.029,CST-1368DR,4334,4683,11475,01.233,551
2023-04-03T00:55:37,42.805,6.029,CST-1368DR,4334,4687,11485,01.229,551
2023-04-03T00:58:38,42.805,6.029,CST-1368DR,4334,4683,11475,01.233,551
2023-04-03T01:01:40,42.805,6.029,CST-1368DR,4334,4686,11482,01.230,551
2023-04-03T01:04:42,42.805,6.029,CST-1368DR,4334,4684,11478,01.231,551
2023-04-03T01:07:43,42.805,6.029,CST-1368DR,4334,4685,11479,01.231,551
2023-04-03T01:10:45,42.805,6.029,CST-1368DR,4334,4690,11493,01.226,552
2023-04-03T01:13:46,42.805,6.029,CST-1368DR,4334,4690,11492,01.227,551
2023-04-03T01:16:48,42.805,6.029,CST-1368DR,4334,4683,11476,01.232,551
2023-04-03T01:19:50,42.805,6.029,CST-1368DR,4334,4690,11492,01.227,551
2023-04-03T01:22:51,42.805,6.029,CST-1368DR,4334,4685,11479,01.231,551
2023-04-03T01:25:53,42.805,6.029,CST-1368DR,4334,4685,11480,01.231,551
2023-04-03T01:28:54,42.805,6.029,CST-1368DR,4334,4680,11469,01.235,551
2023-04-03T01:31:56,42.805,6.029,CST-1368DR,4334,4687,11485,01.229,551
2023-04-03T01:34:57,42.805,6.029,CST-1368DR,4334,4677,11460,01.238,551
2023-04-03T01:37:59,42.805,6.029,CST-1368DR,4334,4680,11467,01.235,551
2023-04-03T01:41:01,42.805,6.029,CST-1368DR,4334,4689,11491,01.227,551
2023-04-03T01:44:02,42.805,6.029,CST-1368DR,4334,4676,11458,01.238,551
2023-04-03T01:47:04,42.805,6.029,CST-1368DR,4334,4683,11474,01.233,551
2023-04-03T01:50:05,42.805,6.029,CST-1368DR,4334,4689,11491,01.227,551
2023-04-03T01:53:07,42.805,6.029,CST-1368DR,4334,4688,11488,01.228,551
2023-04-03T01:56:08,42.805,6.029,CST-1368DR,4334,4679,11465,01.236,551
2023-04-03T01:59:10,42.805,6.029,CST-1368DR,4334,4682,11473,01.233,551
2023-04-03T02:02:12,42.805,6.029,CST-1368DR,4334,4675,11456,01.239,551
2023-04-03T02:05:13,42.805,6.029,CST-1368DR,4334,4678,11464,01.236,551
2023-04-03T02:08:15,42.805,6.029,CST-1368DR,4334,4685,11480,01.231,551
2023-04-03T02:11:16,42.805,6.029,CST-1368DR,4334,4683,11476,01.232,551
2023-04-03T02:14:18,42.805,6.029,CST-1368DR,4334,4686,11482,01.230,551
2023-04-03T02:17:20,42.805,6.029,CST-1368DR,4334,4680,11468,01.235,551
2023-04-03T02:20:21,42.805,6.029,CST-1368DR,4334,4681,11471,01.234,551
2023-04-03T02:23:23,42.805,6.029,CST-1368DR,4334,4682,11472,01.234,551
2023-04-03T02:26:24,42.805,6.029,CST-1368DR,4334,4682,11472,01.234,551
2023-04-03T02:29:26,42.805,6.029,CST-1368DR,4334,4693,11499,01.224,551
2023-04-03T02:32:27,42.805,6.029,CST-1368DR,4334,4680,11468,01.235,551
2023-04-03T02:35:29,42.805,6.029,CST-1368DR,4334,4693,11499,01.224,551
2023-04-03T02:38:31,42.805,6.029,CST-1368DR,4334,4679,11464,01.236,551
2023-04-03T02:41:32,42.805,6.029,CST-1368DR,4334,4678,11464,01.236,551
2023-04-03T02:44:34,42.805,6.029,CST-1368DR,4334,4682,11472,01.234,551
2023-04-03T02:47:35,42.805,6.029,CST-1368DR,4334,4680,11467,01.235,551
2023-04-03T02:50:37,42.805,6.029,CST-1368DR,4334,4685,11480,01.231,551
2023-04-03T02:53:38,42.805,6.029,CST-1368DR,4334,4679,11465,01.236,551
2023-04-03T02:56:40,42.805,6.029,CST-1368DR,4334,4685,11481,01.230,551
2023-04-03T02:59:42,42.805,6.029,CST-1368DR,4334,4685,11480,01.231,551
2023-04-03T03:02:43,42.805,6.029,CST-1368DR,4334,4688,11488,01.228,551
2023-04-03T03:05:45,42.805,6.029,CST-1368DR,4334,4691,11494,01.226,551
2023-04-03T03:08:46,42.805,6.029,CST-1368DR,4334,4682,11472,01.234,551
2023-04-03T03:11:48,42.805,6.029,CST-1368DR,4334,4685,11480,01.231,551
2023-04-03T03:14:49,42.805,6.029,CST-1368DR,4334,4679,11465,01.236,551
2023-04-03T03:17:51,42.805,6.029,CST-1368DR,4334,4679,11464,01.236,551
2023-04-03T03:20:53,42.805,6.029,CST-1368DR,4334,4681,11471,01.234,551
2023-04-03T03:23:54,42.805,6.029,CST-1368DR,4334,4688,11487,01.228,551
2023-04-03T03:26:56,42.805,6.029,CST-1368DR,4334,4681,11471,01.234,551
2023-04-03T03:29:57,42.805,6.029,CST-1368DR,4334,4685,11480,01.231,551
2023-04-03T03:32:59,42.805,6.029,CST-1368DR,4334,4681,11471,01.234,551
2023-04-03T03:36:01,42.805,6.029,CST-1368DR,4334,4686,11483,01.230,551
2023-04-03T03:39:02,42.805,6.029,CST-1368DR,4334,4686,11482,01.230,551
2023-04-03T03:42:04,42.805,6.029,CST-1368DR,4334,4681,11471,01.234,551
2023-04-03T03:45:05,42.805,6.029,CST-1368DR,4334,4684,11478,01.231,551
2023-04-03T03:48:07,42.805,6.029,CST-1368DR,4334,4690,11491,01.227,551
2023-04-03T03:51:08,42.805,6.029,CST-1368DR,4334,4684,11478,01.231,551
2023-04-03T03:54:10,42.805,6.029,CST-1368DR,4334,4678,11464,01.236,551
2023-04-03T03:57:12,42.805,6.029,CST-1368DR,4334,4685,11480,01.231,551
2023-04-03T04:00:13,42.805,6.029,CST-1368DR,4334,4687,11485,01.229,551
2023-04-03T04:03:15,42.805,6.029,CST-1368DR,4334,4679,11466,01.236,551
2023-04-03T04:06:16,42.805,6.029,CST-1368DR,4334,4678,11463,01.237,551
2023-04-03T04:09:18,42.805,6.029,CST-1368DR,4334,4679,11466,01.236,551
2023-04-03T04:12:19,42.805,6.029,CST-1368DR,4334,4681,11471,01.234,551
2023-04-03T04:15:21,42.805,6.029,CST-1368DR,4334,4679,11466,01.236,551
2023-04-03T04:18:23,42.805,6.029,CST-1368DR,4334,4686,11482,01.230,551
2023-04-03T04:21:24,42.805,6.029,CST-1368DR,4334,4692,11496,01.225,551
2023-04-03T04:24:26,42.805,6.029,CST-1368DR,4334,4691,11495,01.226,551
2023-04-03T04:27:27,42.805,6.029,CST-1368DR,4334,4685,11481,01.230,551
2023-04-03T04:30:29,42.805,6.029,CST-1368DR,4334,4685,11481,01.230,551
2023-04-03T04:33:31,42.805,6.029,CST-1368DR,4334,4680,11468,01.235,551
2023-04-03T04:36:32,42.805,6.029,CST-1368DR,4334,4681,11470,01.234,551
2023-04-03T04:39:34,42.805,6.029,CST-1368DR,4334,4682,11474,01.233,551
2023-04-03T04:42:35,42.805,6.029,CST-1368DR,4334,4686,11482,01.230,551
2023-04-03T04:45:37,42.805,6.029,CST-1368DR,4334,4686,11483,01.230,551
2023-04-03T04:48:38,42.805,6.029,CST-1368DR,4334,4683,11475,01.233,551
2023-04-03T04:51:40,42.805,6.029,CST-1368DR,4334,4691,11495,01.226,551
2023-04-03T04:54:42,42.805,6.029,CST-1368DR,4334,4680,11467,01.235,551
2023-04-03T04:57:43,42.805,6.029,CST-1368DR,4334,4685,11479,01.231,551
2023-04-03T05:00:45,42.805,6.029,CST-1368DR,4334,4683,11475,01.233,551
2023-04-03T05:03:46,42.805,6.029,CST-1368DR,4334,4691,11494,01.226,551
2023-04-03T05:06:48,42.805,6.029,CST-1368DR,4334,4680,11467,01.235,551
2023-04-03T05:09:49,42.805,6.029,CST-1368DR,4334,4676,11459,01.238,551
2023-04-03T05:12:51,42.805,6.029,CST-1368DR,4334,4679,11466,01.236,551
2023-04-03T05:15:53,42.805,6.029,CST-1368DR,4334,4680,11468,01.235,551
2023-04-03T05:18:54,42.805,6.029,CST-1368DR,4334,4681,11470,01.234,551
2023-04-03T05:21:56,42.805,6.029,CST-1368DR,4334,4680,11467,01.235,551
2023-04-03T05:24:57,42.805,6.029,CST-1368DR,4334,4682,11472,01.234,551
2023-04-03T05:27:59,42.805,6.029,CST-1368DR,4334,4680,11467,01.235,551
2023-04-03T05:31:01,42.805,6.029,CST-1368DR,4334,4683,11474,01.233,551
2023-04-03T05:34:02,42.805,6.029,CST-1368DR,4334,4679,11464,01.236,551
2023-04-03T05:37:04,42.805,6.029,CST-1368DR,4334,4682,11472,01.234,551
2023-04-03T05:40:05,42.805,6.029,CST-1368DR,4334,4690,11493,01.226,551
2023-04-03T05:43:07,42.805,6.029,CST-1368DR,4334,4687,11484,01.229,551
2023-04-03T05:46:08,42.805,6.029,CST-1368DR,4333,4678,11464,01.236,551
2023-04-03T05:49:10,42.805,6.029,CST-1368DR,4334,4682,11473,01.233,551
2023-04-03T05:52:12,42.805,6.029,CST-1368DR,4334,4684,11477,01.232,551
2023-04-03T05:55:13,42.805,6.029,CST-1368DR,4334,4682,11474,01.233,551
2023-04-03T05:58:15,42.805,6.029,CST-1368DR,4334,4679,11466,01.236,551
2023-04-03T06:01:16,42.805,6.029,CST-1368DR,4334,4688,11488,01.228,551
2023-04-03T06:04:18,42.805,6.029,CST-1368DR,4334,4686,11483,01.230,551
2023-04-03T06:07:19,42.805,6.029,CST-1368DR,4334,4684,11477,01.232,551
2023-04-03T06:10:21,42.805,6.029,CST-1368DR,4334,4689,11490,01.227,551
2023-04-03T06:13:23,42.805,6.029,CST-1368DR,4334,4686,11482,01.230,551
2023-04-03T06:16:24,42.805,6.029,CST-1368DR,4334,4685,11481,01.230,551
2023-04-03T06:19:26,42.805,6.029,CST-1368DR,4334,4686,11482,01.230,551
2023-04-03T06:22:27,42.805,6.029,CST-1368DR,4333,4655,11409,01.256,551
2023-04-03T06:25:29,42.805,6.029,CST-1368DR,4334,4682,11473,01.233,551
2023-04-03T06:28:30,42.805,6.029,CST-1368DR,4334,4683,11475,01.233,551
2023-04-03T06:31:32,42.805,6.029,CST-1368DR,4334,4688,11488,01.228,551
2023-04-03T06:34:34,42.805,6.029,CST-1368DR,4334,4682,11472,01.234,551
2023-04-03T06:37:35,42.805,6.029,CST-1368DR,4334,4682,11474,01.233,551
2023-04-03T06:40:37,42.805,6.029,CST-1368DR,4334,4684,11478,01.231,551
2023-04-03T06:43:38,42.805,6.029,CST-1368DR,4334,4684,11478,01.231,551
2023-04-03T06:46:40,42.805,6.029,CST-1368DR,4334,4683,11475,01.233,551
2023-04-03T06:49:42,42.805,6.029,CST-1368DR,4334,4676,11458,01.238,551
2023-04-03T06:52:43,42.805,6.029,CST-1368DR,4333,4680,11471,01.234,551
2023-04-03T06:55:45,42.805,6.029,CST-1368DR,4333,4677,11463,01.237,551
2023-04-03T06:58:46,42.805,6.029,CST-1368DR,4333,4676,11461,01.237,551
2023-04-03T07:01:48,42.805,6.029,CST-1368DR,4333,4673,11454,01.240,551
2023-04-03T07:04:49,42.805,6.029,CST-1368DR,4333,4678,11466,01.236,551
2023-04-03T07:07:51,42.805,6.029,CST-1368DR,4333,4675,11459,01.238,552
2023-04-03T07:10:53,42.805,6.029,CST-1368DR,4333,4678,11466,01.236,551
2023-04-03T07:13:54,42.805,6.029,CST-1368DR,4333,4674,11455,01.239,551
2023-04-03T07:16:56,42.805,6.029,CST-1368DR,4333,4680,11470,01.234,551
2023-04-03T07:19:57,42.805,6.029,CST-1368DR,4333,4672,11450,01.241,551
2023-04-03T07:22:59,42.805,6.029,CST-1368DR,4333,4674,11457,01.239,551
2023-04-03T07:26:00,42.805,6.029,CST-1368DR,4333,4674,11456,01.239,551
2023-04-03T07:29:02,42.805,6.029,CST-1368DR,4333,4674,11457,01.239,551
2023-04-03T07:32:04,42.805,6.029,CST-1368DR,4333,4678,11466,01.236,551
2023-04-03T07:35:05,42.805,6.029,CST-1368DR,4333,4673,11452,01.241,551
2023-04-03T07:38:07,42.805,6.029,CST-1368DR,4333,4678,11465,01.236,551
2023-04-03T07:41:08,42.805,6.029,CST-1368DR,4333,4675,11457,01.239,551
2023-04-03T07:44:10,42.805,6.029,CST-1368DR,4333,4680,11470,01.234,551
2023-04-03T07:47:11,42.805,6.029,CST-1368DR,4333,4676,11461,01.237,551
2023-04-03T07:50:13,42.805,6.029,CST-1368DR,4333,4671,11449,01.242,551
2023-04-03T07:53:15,42.805,6.029,CST-1368DR,4333,4673,11452,01.241,551
2023-04-03T07:56:16,42.805,6.029,CST-1368DR,4333,4675,11457,01.239,551
2023-04-03T07:59:18,42.805,6.029,CST-1368DR,4333,4671,11449,01.242,551
2023-04-03T08:02:19,42.805,6.029,CST-1368DR,4333,4683,11477,01.232,551
2023-04-03T08:05:21,42.805,6.029,CST-1368DR,4333,4677,11463,01.237,551
2023-04-03T08:08:23,42.805,6.029,CST-1368DR,4333,4679,11468,01.235,551
2023-04-03T08:11:24,42.805,6.029,CST-1368DR,4333,4678,11465,01.236,551
2023-04-03T08:14:26,42.805,6.029,CST-1368DR,4333,4679,11468,01.235,551
2023-04-03T08:17:27,42.805,6.029,CST-1368DR,4333,4673,11453,01.240,551
2023-04-03T08:20:29,42.805,6.029,CST-1368DR,4333,4675,11458,01.238,551
2023-04-03T08:23:30,42.805,6.029,CST-1368DR,4333,4664,11431,01.248,551
2023-04-03T08:26:32,42.805,6.029,CST-1368DR,4333,4674,11457,01.239,552
2023-04-03T08:29:34,42.805,6.029,CST-1368DR,4333,4672,11452,01.241,551
2023-04-03T08:32:37,42.805,6.029,CST-1368DR,4333,4672,11450,01.241,551
2023-04-03T08:35:39,42.805,6.029,CST-1368DR,4333,4674,11456,01.239,551
2023-04-03T08:38:40,42.805,6.029,CST-1368DR,4333,4675,11458,01.238,551
2023-04-03T08:41:42,42.805,6.029,CST-1368DR,4333,4672,11451,01.241,551
2023-04-03T08:44:44,42.805,6.029,CST-1368DR,4333,4676,11461,01.237,551
2023-04-03T08:47:45,42.805,6.029,CST-1368DR,4333,4676,11461,01.237,551
2023-04-03T08:50:47,42.805,6.029,CST-1368DR,4333,4672,11451,01.241,551
2023-04-03T08:53:48,42.805,6.029,CST-1368DR,4333,4673,11452,01.241,551
2023-04-03T08:56:50,42.805,6.029,CST-1368DR,4333,4672,11450,01.241,551
2023-04-03T08:59:52,42.805,6.029,CST-1368DR,4333,4675,11459,01.238,551
2023-04-03T09:02:53,42.805,6.029,CST-1368DR,4333,4674,11456,01.239,551
2023-04-03T09:05:55,42.805,6.029,CST-1368DR,4333,4676,11461,01.237,551
2023-04-03T09:08:56,42.805,6.029,CST-1368DR,4333,4675,11458,01.238,551
2023-04-03T09:11:58,42.805,6.029,CST-1368DR,4333,4678,11466,01.236,551
2023-04-03T09:14:59,42.805,6.029,CST-1368DR,4333,4677,11463,01.237,551
2023-04-03T09:18:01,42.805,6.029,CST-1368DR,4333,4675,11459,01.238,551
2023-04-03T09:21:03,42.805,6.029,CST-1368DR,4333,4673,11453,01.240,551
2023-04-03T09:24:04,42.805,6.029,CST-1368DR,4333,4676,11460,01.238,551
2023-04-03T09:27:06,42.805,6.029,CST-1368DR,4333,4669,11443,01.244,551
2023-04-03T09:30:07,42.805,6.029,CST-1368DR,4333,4674,11456,01.239,551
2023-04-03T09:33:09,42.805,6.029,CST-1368DR,4333,4672,11450,01.241,551
2023-04-03T09:36:10,42.805,6.029,CST-1368DR,4333,4673,11453,01.240,551
2023-04-03T09:39:12,42.805,6.029,CST-1368DR,4333,4672,11451,01.241,551
2023-04-03T09:42:14,42.805,6.029,CST-1368DR,4333,4670,11446,01.243,551
2023-04-03T09:45:15,42.805,6.029,CST-1368DR,4333,4670,11445,01.243,551
2023-04-03T09:48:17,42.805,6.029,CST-1368DR,4333,4674,11456,01.239,551
2023-04-03T09:51:18,42.805,6.029,CST-1368DR,4333,4674,11457,01.239,551
2023-04-03T09:54:20,42.805,6.029,CST-1368DR,4333,4673,11452,01.241,551
2023-04-03T09:57:22,42.805,6.029,CST-1368DR,4333,4672,11450,01.241,551
2023-04-03T10:00:23,42.805,6.029,CST-1368DR,4333,4673,11454,01.240,551
2023-04-03T10:03:25,42.805,6.029,CST-1368DR,4333,4666,11436,01.246,551
2023-04-03T10:06:26,42.805,6.029,CST-1368DR,4333,4666,11437,01.246,551
2023-04-03T10:09:28,42.805,6.029,CST-1368DR,4333,4670,11445,01.243,551
2023-04-03T10:12:29,42.805,6.029,CST-1368DR,4333,4672,11451,01.241,551
2023-04-03T10:15:31,42.805,6.029,CST-1368DR,4333,4669,11442,01.244,551
2023-04-03T10:18:33,42.805,6.029,CST-1368DR,4333,4665,11434,01.247,551
2023-04-03T10:21:34,42.805,6.029,CST-1368DR,4333,4670,11446,01.243,551
2023-04-03T10:24:36,42.805,6.029,CST-1368DR,4333,4668,11440,01.245,551
2023-04-03T10:27:37,42.805,6.029,CST-1368DR,4333,4671,11449,01.242,551
2023-04-03T10:30:39,42.805,6.029,CST-1368DR,4333,4671,11448,01.242,551
2023-04-03T10:33:40,42.805,6.029,CST-1368DR,4333,4670,11446,01.243,551
2023-04-03T10:36:42,42.805,6.029,CST-1368DR,4333,4671,11449,01.242,551
2023-04-03T10:39:44,42.805,6.029,CST-1368DR,4333,4671,11449,01.242,551
2023-04-03T10:42:45,42.805,6.029,CST-1368DR,4333,4672,11452,01.241,551
2023-04-03T10:45:47,42.805,6.029,CST-1368DR,4333,4672,11450,01.241,551
2023-04-03T10:48:48,42.805,6.029,CST-1368DR,4333,4669,11444,01.243,551
2023-04-03T10:51:50,42.805,6.029,CST-1368DR,4333,4670,11445,01.243,551
2023-04-03T10:54:52,42.805,6.029,CST-1368DR,4333,4670,11445,01.243,551
2023-04-03T10:57:53,42.805,6.029,CST-1368DR,4333,4669,11442,01.244,551
2023-04-03T11:00:55,42.805,6.029,CST-1368DR,4333,4669,11444,01.243,551
2023-04-03T11:03:56,42.805,6.029,CST-1368DR,4333,4671,11449,01.242,551
2023-04-03T11:06:58,42.805,6.029,CST-1368DR,4333,4669,11444,01.243,551
2023-04-03T11:09:59,42.805,6.029,CST-1368DR,4333,4669,11444,01.243,551
2023-04-03T11:13:01,42.805,6.029,CST-1368DR,4333,4672,11450,01.241,551
2023-04-03T11:16:03,42.805,6.029,CST-1368DR,4333,4669,11444,01.243,551
2023-04-03T11:19:04,42.805,6.029,CST-1368DR,4333,4669,11443,01.244,551
2023-04-03T11:22:06,42.805,6.029,CST-1368DR,4333,4671,11449,01.242,551
2023-04-03T11:25:07,42.805,6.029,CST-1368DR,4333,4675,11459,01.238,551
2023-04-03T11:28:09,42.805,6.029,CST-1368DR,4333,4670,11445,01.243,551
2023-04-03T11:31:10,42.805,6.029,CST-1368DR,4333,4674,11456,01.239,551
2023-04-03T11:34:12,42.805,6.029,CST-1368DR,4333,4674,11457,01.239,552
2023-04-03T11:37:14,42.805,6.029,CST-1368DR,4333,4672,11451,01.241,551
2023-04-03T11:40:15,42.805,6.029,CST-1368DR,4333,4672,11452,01.241,551
2023-04-03T11:43:17,42.805,6.029,CST-1368DR,4333,4673,11452,01.241,551
2023-04-03T11:46:18,42.805,6.029,CST-1368DR,4333,4673,11453,01.240,551
2023-04-03T11:49:20,42.805,6.029,CST-1368DR,4333,4669,11443,01.244,551
2023-04-03T11:52:22,42.805,6.029,CST-1368DR,4333,4673,11453,01.240,551
2023-04-03T11:55:23,42.805,6.029,CST-1368DR,4333,4672,11452,01.241,552
2023-04-03T11:58:25,42.805,6.029,CST-1368DR,4333,4670,11445,01.243,551
2023-04-03T12:01:26,42.805,6.029,CST-1368DR,4333,4673,11452,01.241,551
2023-04-03T12:04:28,42.805,6.029,CST-1368DR,4333,4671,11448,01.242,551
2023-04-03T12:07:29,42.805,6.029,CST-1368DR,4333,4672,11452,01.241,551
2023-04-03T12:10:31,42.805,6.029,CST-1368DR,4333,4671,11449,01.242,551
2023-04-03T12:13:33,42.805,6.029,CST-1368DR,4333,4673,11452,01.241,551
2023-04-03T12:16:34,42.805,6.029,CST-1368DR,4333,4671,11447,01.242,551
2023-04-03T12:19:36,42.805,6.029,CST-1368DR,4333,4668,11441,01.244,551
2023-04-03T12:22:37,42.805,6.029,CST-1368DR,4333,4668,11442,01.244,551
2023-04-03T12:25:39,42.805,6.029,CST-1368DR,4333,4672,11451,01.241,551
2023-04-03T12:28:40,42.805,6.029,CST-1368DR,4333,4673,11453,01.240,551
2023-04-03T12:31:45,42.805,6.029,CST-1368DR,4333,4669,11444,01.243,551
2023-04-03T12:34:47,42.805,6.029,CST-1368DR,4333,4667,11439,01.245,551
2023-04-03T12:37:48,42.805,6.029,CST-1368DR,4333,4670,11445,01.243,551
2023-04-03T12:40:50,42.805,6.029,CST-1368DR,4333,4670,11446,01.243,551
2023-04-03T12:43:51,42.805,6.029,CST-1368DR,4333,4673,11452,01.241,551
2023-04-03T12:46:53,42.805,6.029,CST-1368DR,4333,4673,11452,01.241,551
2023-04-03T12:49:55,42.805,6.029,CST-1368DR,4333,4673,11453,01.240,551
2023-04-03T12:52:56,42.805,6.029,CST-1368DR,4333,4672,11451,01.241,551
2023-04-03T12:55:58,42.805,6.029,CST-1368DR,4333,4673,11453,01.240,551
2023-04-03T12:58:59,42.805,6.029,CST-1368DR,4333,4673,11453,01.240,551
2023-04-03T13:02:01,42.805,6.029,CST-1368DR,4333,4674,11455,01.239,551
2023-04-03T13:05:02,42.805,6.029,CST-1368DR,4333,4673,11454,01.240,551
2023-04-03T13:08:04,42.805,6.029,CST-1368DR,4333,4674,11456,01.239,551
2023-04-03T13:11:06,42.805,6.029,CST-1368DR,4333,4676,11460,01.238,551
2023-04-03T13:14:07,42.805,6.029,CST-1368DR,4333,4670,11446,01.243,551
2023-04-03T13:17:09,42.805,6.029,CST-1368DR,4333,4678,11466,01.236,551
2023-04-03T13:20:10,42.805,6.029,CST-1368DR,4333,4675,11458,01.238,551
2023-04-03T13:23:12,42.805,6.029,CST-1368DR,4333,4676,11460,01.238,551
2023-04-03T13:26:13,42.805,6.029,CST-1368DR,4333,4673,11453,01.240,552
2023-04-03T13:29:15,42.805,6.029,CST-1368DR,4333,4675,11457,01.239,551
2023-04-03T13:32:17,42.805,6.029,CST-1368DR,4333,4675,11458,01.238,551
2023-04-03T13:35:18,42.805,6.029,CST-1368DR,4333,4672,11450,01.241,551
2023-04-03T13:38:20,42.805,6.029,CST-1368DR,4333,4674,11457,01.239,551
2023-04-03T13:41:21,42.805,6.029,CST-1368DR,4333,4676,11461,01.237,551
2023-04-03T13:44:23,42.805,6.029,CST-1368DR,4333,4676,11461,01.237,551
2023-04-03T13:47:25,42.805,6.029,CST-1368DR,4333,4676,11460,01.238,551
2023-04-03T13:50:26,42.805,6.029,CST-1368DR,4333,4677,11462,01.237,551
2023-04-03T13:53:28,42.805,6.029,CST-1368DR,4333,4672,11451,01.241,551
2023-04-03T13:56:29,42.805,6.029,CST-1368DR,4333,4673,11453,01.240,551
2023-04-03T13:59:31,42.805,6.029,CST-1368DR,4333,4677,11462,01.237,551
2023-04-03T14:02:32,42.805,6.029,CST-1368DR,4333,4673,11454,01.240,551
2023-04-03T14:05:34,42.805,6.029,CST-1368DR,4333,4673,11453,01.240,551
2023-04-03T14:08:36,42.805,6.029,CST-1368DR,4333,4676,11461,01.237,551
2023-04-03T14:11:37,42.805,6.029,CST-1368DR,4333,4675,11457,01.239,551
2023-04-03T14:14:39,42.805,6.029,CST-1368DR,4333,4673,11453,01.240,551
2023-04-03T14:17:40,42.805,6.029,CST-1368DR,4333,4676,11460,01.238,551
2023-04-03T14:20:42,42.805,6.029,CST-1368DR,4333,4678,11465,01.236,551
2023-04-03T14:23:43,42.805,6.029,CST-1368DR,4333,4675,11458,01.238,551
2023-04-03T14:26:45,42.805,6.029,CST-1368DR,4333,4679,11468,01.235,551
2023-04-03T14:29:47,42.805,6.029,CST-1368DR,4333,4678,11466,01.236,551
2023-04-03T14:32:48,42.805,6.029,CST-1368DR,4333,4672,11452,01.241,551
2023-04-03T14:35:50,42.805,6.029,CST-1368DR,4333,4675,11457,01.239,551
2023-04-03T14:38:51,42.805,6.029,CST-1368DR,4333,4682,11474,01.233,551
2023-04-03T14:41:53,42.805,6.029,CST-1368DR,4333,4676,11460,01.238,551
2023-04-03T14:44:55,42.805,6.029,CST-1368DR,4333,4678,11464,01.236,551
2023-04-03T14:47:56,42.805,6.029,CST-1368DR,4333,4675,11457,01.239,551
2023-04-03T14:50:58,42.805,6.029,CST-1368DR,4333,4680,11469,01.235,552
2023-04-03T14:53:59,42.805,6.029,CST-1368DR,4333,4679,11467,01.235,551
2023-04-03T14:57:01,42.805,6.029,CST-1368DR,4333,4675,11457,01.239,551
2023-04-03T15:00:02,42.805,6.029,CST-1368DR,4333,4670,11445,01.243,551
2023-04-03T15:03:04,42.805,6.029,CST-1368DR,4333,4677,11462,01.237,551
2023-04-03T15:06:06,42.805,6.029,CST-1368DR,4333,4678,11465,01.236,551
2023-04-03T15:09:07,42.805,6.029,CST-1368DR,4333,4675,11458,01.238,551
2023-04-03T15:12:09,42.805,6.029,CST-1368DR,4333,4675,11458,01.238,551
2023-04-03T15:15:10,42.805,6.029,CST-1368DR,4333,4674,11455,01.239,551
2023-04-03T15:18:12,42.805,6.029,CST-1368DR,4333,4678,11466,01.236,552
2023-04-03T15:21:13,42.805,6.029,CST-1368DR,4333,4675,11458,01.238,551
2023-04-03T15:24:15,42.805,6.029,CST-1368DR,4333,4671,11449,01.242,551
2023-04-03T15:27:17,42.805,6.029,CST-1368DR,4333,4676,11460,01.238,551
2023-04-03T15:30:18,42.805,6.029,CST-1368DR,4333,4674,11457,01.239,551
2023-04-03T15:33:20,42.805,6.029,CST-1368DR,4333,4673,11453,01.240,551
2023-04-03T15:36:21,42.805,6.029,CST-1368DR,4333,4673,11453,01.240,552
2023-04-03T15:39:23,42.805,6.029,CST-1368DR,4333,4672,11450,01.241,551
2023-04-03T15:42:25,42.805,6.029,CST-1368DR,4333,4672,11451,01.241,551
2023-04-03T15:45:26,42.805,6.029,CST-1368DR,4333,4670,11445,01.243,551
2023-04-03T15:48:28,42.805,6.029,CST-1368DR,4333,4671,11449,01.242,551
2023-04-03T15:51:29,42.805,6.029,CST-1368DR,4333,4674,11456,01.239,551
2023-04-03T15:54:31,42.805,6.029,CST-1368DR,4333,4672,11451,01.241,551
2023-04-03T15:57:32,42.805,6.029,CST-1368DR,4333,4668,11442,01.244,551
2023-04-03T16:00:34,42.805,6.029,CST-1368DR,4333,4670,11445,01.243,551
2023-04-03T16:03:36,42.805,6.029,CST-1368DR,4333,4672,11451,01.241,551
2023-04-03T16:06:37,42.805,6.029,CST-1368DR,4333,4672,11451,01.241,551
2023-04-03T16:09:39,42.805,6.029,CST-1368DR,4333,4670,11446,01.243,551
2023-04-03T16:12:40,42.805,6.029,CST-1368DR,4333,4671,11449,01.242,551
2023-04-03T16:15:42,42.805,6.029,CST-1368DR,4333,4668,11440,01.245,551
2023-04-03T16:18:43,42.805,6.029,CST-1368DR,4333,4671,11449,01.242,551
2023-04-03T16:21:45,42.805,6.029,CST-1368DR,4333,4671,11448,01.242,551
2023-04-03T16:24:47,42.805,6.029,CST-1368DR,4333,4667,11439,01.245,551
2023-04-03T16:27:48,42.805,6.029,CST-1368DR,4333,4671,11449,01.242,551
2023-04-03T16:30:53,42.805,6.029,CST-1368DR,4333,4672,11450,01.241,551
2023-04-03T16:33:54,42.805,6.029,CST-1368DR,4333,4673,11452,01.241,551
2023-04-03T16:36:56,42.805,6.029,CST-1368DR,4333,4671,11447,01.242,551